COSMOS 1275 DEB

Satellite information

Favourite Embed

Satellite Type and Status

DEBRISIN ORBIT

Key statistics

Satellite COSMOS 1275 DEB at a glance.

Uptime

16046

Days in orbit

Revolutions

≈ 14.5

Per day

Orbit

LEO

Low Earth Orbit

Inclination

82.9

Latest

Satellite identification and parameters

Extended collection of information and parameters for COSMOS 1275 DEB.

Object identification

Identified? True

Debris? True

Object name: COSMOS 1275 DEB

International designator: 1981-053FP

Object number (NORAD): 13467

Object ID (CCSDS): 13467

Country: COMMONWEALTH OF INDEPENDENT STATES (CIS)

Current information (Y/N): Y

RCS size: SMALL

Orbital parameters

Period: 99.253 minutes

Inclination: 82.9449 deg

SMA: 7101.033 km

Apoapsis: 737.484 km

Periapsis: 708.313 km

RAAN: 207.4172 deg

Eccentricy: 0.002054

Argument of periapsis: 113.4037 deg

Mean anomaly: 15.3689 deg

Mean motion: 14.50843005 rev/day

Mean motion (dot): 0.00006976 rev/day2

B* drag term: 0.0017603 1/REarth

Two-line elements (TLE)

Creation date: May 10, 2025, 2:32 a.m.

Reference frame: TEME

Reference center: EARTH

Epoch: May 9, 2025, 5:30 p.m. UTC

TLE line 0: 0 COSMOS 1275 DEB

TLE line 1: 1 13467U 81053FP 25129.72972670 .00006976 00000-0 17603-2 0 9994

TLE line 2: 2 13467 82.9449 207.4172 0020540 113.4037 15.3689 14.50843005230582

Live tracking on map

Real-time ground track for satellite COSMOS 1275 DEB.

In-orbit conjunctions

A list of the most updated potential collisions computed for object COSMOS 1275 DEB.

Target Orbit TCA Probability of collision Miss distance Type
ARIANE 40 R/B SSO 2024-07-06 18:09:20 0.000166175 107.0 (m) ROCKET BODY
DELTA 1 DEB SSO 2024-06-29 09:54:06 0.0001996921 131.0 (m) DEBRIS
DELTA 1 DEB SSO 2024-05-31 11:38:55 0.0001429976 113.0 (m) DEBRIS

Associated space launch

Navigation satellite providing location information for the Tsiklon-B navigation system

COSMOS 1275 DEB was lifted into orbit during the mission ‘Kosmos-3M | Parus 27’, on board a Kosmos-3M space rocket.

The launch took place on June 4, 1981, 3:41 p.m. from 132/2.

For more information about the launch, click the button.

Launch to space Kosmos-3M | Parus 27
Kosmos-3M | Parus 27

Agency: N/A

Status: Launch Successful

Launch date: June 4, 1981, 3:41 p.m. UTC

Rocket: Kosmos-3M

Launch pad: 132/2

Location: Plesetsk Cosmodrome, Russian Federation

...

Latest news about this satellite

There are no fresh news available about this satellite. Check back as we update our databases every day.


Newsletter sign-up

Weekly statistics, charts and insights to help you stay on top of the space industry.